Flag for Austria Weather past 2 weeks in Judenburg, Styria, Austria

Now
59 °F

Partly sunny.


Feels Like: 56 °F
Forecast: 41 / 60 °F
Wind: 16 mph from West

Location: Zeltweg

Current Time: Sep 22, 2014 at 12:38:15 PM

Latest Report: Sep 22, 2014 at 11:50 AM


Visibility: 19 mi

Pressure: 29.92 "Hg

Humidity: 48%

Dew point: 39 °F

Location of JudenburgLocation

Historic Weather in Judenburg — Graph

°F

Judenburg temperature yesterday

Maximum temperature yesterday: 73 °F (at 2:20 PM)
Minimum temperature yesterday: 54 °F (at 9:50 PM)
Average temperature yesterday: 61 °F

Past Weeks' High & Low Weather Summary

 TemperatureHumidityPressure
High77 °F (Sep 8, 4:20 PM)100% (Sep 7, 8:50 PM)30.12 "Hg (Sep 7, 8:50 PM)
Low45 °F (Sep 18, 6:50 AM)41% (Sep 8, 3:50 PM)29.89 "Hg (Sep 12, 4:50 AM)
Average59 °F81%30.04 "Hg
* Reported Sep 7 11:50 AM — Sep 22 11:20 AM, Judenburg, Weather by CustomWeather, © 2014

Note: Actual official high and low records may vary slightly from our data, if they occured in-between our weather recording intervals... More about our weather records

Advertising

Judenburg weather history for previous 24 hours

 ConditionsComfort  
Time TempWeatherWind HumidityBarometerVisibility
11:20 AM
Sep 22
59 °FPartly sunny.6 mph55%29.95 "Hg19 mi
10:50 AM57 °FScattered clouds.7 mph67%29.92 "Hg19 mi
10:20 AM57 °FScattered clouds.5 mph72%29.92 "Hg19 mi
9:50 AM55 °FScattered clouds.5 mph82%29.92 "Hg12 mi
9:20 AM54 °FBroken clouds.1 mph94%29.92 "Hg12 mi
8:50 AM54 °FBroken clouds.2 mph88%29.92 "Hg12 mi
8:20 AM54 °FPartly sunny.2 mph94%29.92 "Hg12 mi
7:50 AM52 °FPartly sunny.3 mph100%29.92 "Hg12 mi
7:20 AM54 °FPassing clouds.2 mph100%29.92 "Hg12 mi
6:50 AM54 °FPassing clouds.2 mph100%29.92 "Hg12 mi
5:50 AM54 °FMostly cloudy.1 mph94%29.89 "Hg9 mi
4:50 AM54 °FPartly cloudy.3 mph94%29.89 "Hg9 mi
10:50 PM
Sep 21
54 °FPartly cloudy.1 mph100%29.92 "Hg9 mi
9:50 PM54 °FPassing clouds.5 mph100%29.92 "Hg9 mi
8:50 PM55 °FPassing clouds.2 mph100%29.92 "Hg9 mi
7:50 PM57 °FRain showers. Broken clouds.1 mph94%29.95 "Hg6 mi
6:50 PM57 °FThunderstorms. More clouds than sun.13 mph94%29.95 "Hg5 mi
5:50 PM61 °FSprinkles. Broken clouds.2 mph88%29.95 "Hg6 mi
4:50 PM61 °FBroken clouds.3 mph83%29.95 "Hg9 mi
4:20 PM59 °FThunderstorms. Broken clouds.5 mph82%29.95 "Hg5 mi
3:50 PM63 °FThunderstorms. Broken clouds.16 mph77%29.92 "Hg5 mi
3:20 PM70 °FThunderstorms. Partly sunny.10 mph64%29.92 "Hg12 mi
2:50 PM72 °FScattered clouds.2 mph50%29.92 "Hg19 mi
2:20 PM73 °FScattered clouds.6 mph53%29.95 "Hg19 mi
1:50 PM70 °FScattered clouds.5 mph64%29.95 "Hg19 mi
1:20 PM68 °FScattered clouds.3 mph69%29.98 "Hg19 mi
12:50 PM68 °FScattered clouds.3 mph69%29.98 "Hg19 mi
12:20 PM66 °FScattered clouds.2 mph68%30.01 "Hg12 mi
Weather by CustomWeather, © 2014

See weather overviewHow to use our weather pages